Powrót do katalogu

COSMOS 2251 DEB

AktywnyLEO
NORAD 37969·DEBRIS·🇷🇺 Russia

Wystrzelony Jun 16, 1993 z Plesetsk Cosmodrome

Loading…

Następne Przeloty (najbliższe 24 godziny)

TLE

NieaktualneSource: Space-Track

Epoka: Sep 7, 2026, 09:30 UTC

1 37969U 93036BPU 26250.39632929  .00004338  00000-0  11036-2 0  9994
2 37969  73.9753 151.2368 0104333 286.0353  72.9335 14.47746545553501

Śledź COSMOS 2251 DEB w czasie rzeczywistym z AllMySat

Download on the App Store